45.2°F
Current conditions from King Hill
Updated every 5 minutes
 
  Thursday April 17, 2014

Station Historical Data
Daily Summary for February 11, 2011 Units:  Metric    English   Both
« Previous Day
Next Day »
Daily Weekly Monthly Yearly Custom
  High: Low: Average:
Temperature: -5.9 °C -14.8 °C -10.1 °C
Dew Point: -14.1 °C -19.1 °C -16.1 °C
Humidity: 71% 50% 62%
Wind Speed: 14.5km/h 1.6km/h 6.8km/h
Wind Gust: 25.7km/h - -
Wind- - SSW
Pressure: 1017.5 hPa 1012.8 hPa -
Precipitation: 0 mm    
Historical Graphs
 
 
Tabular Data for February 11, 2011
Time Temperature Dew Point Pressure Wind Wind Speed Wind Gust Humidity Daily Rainfall
00:00 -9.8 °C -15.5 °C 1015.1 hPa WSW 6.4 km/h 12.9 km/h 63% 0 mm
00:05 -9.9 °C -15.4 °C 1015.1 hPa SSW 6.4 km/h 12.9 km/h 64% 0 mm
00:10 -10.2 °C -15.4 °C 1015.1 hPa SSW 6.4 km/h 14.5 km/h 66% 0 mm
00:15 -10.4 °C -15.5 °C 1015.1 hPa SSW 8 km/h 14.5 km/h 66% 0 mm
00:20 -10.4 °C -15.6 °C 1015.1 hPa SSW 4.8 km/h 17.7 km/h 66% 0 mm
00:25 -10.5 °C -15.4 °C 1015.1 hPa SSW 8 km/h 17.7 km/h 67% 0 mm
00:30 -10.6 °C -15.7 °C 1015.1 hPa SSW 9.7 km/h 19.3 km/h 66% 0 mm
00:35 -10.6 °C -15.7 °C 1015.1 hPa SW 9.7 km/h 19.3 km/h 66% 0 mm
00:40 -10.6 °C -15.6 °C 1014.8 hPa SSW 4.8 km/h 14.5 km/h 67% 0 mm
00:45 -10.7 °C -15.6 °C 1015.1 hPa SSW 6.4 km/h 11.3 km/h 67% 0 mm
00:50 -10.7 °C -15.6 °C 1015.1 hPa SW 3.2 km/h 11.3 km/h 67% 0 mm
00:55 -10.7 °C -15.8 °C 1015.1 hPa SSW 3.2 km/h 11.3 km/h 66% 0 mm
01:05 -10.7 °C -15.8 °C 1015.1 hPa SW 4.8 km/h 11.3 km/h 66% 0 mm
01:10 -10.7 °C -15.9 °C 1015.1 hPa SW 6.4 km/h 14.5 km/h 65% 0 mm
01:15 -10.6 °C -15.9 °C 1015.1 hPa SW 8 km/h 16.1 km/h 65% 0 mm
01:20 -10.7 °C -15.9 °C 1015.1 hPa SW 4.8 km/h 16.1 km/h 65% 0 mm
01:25 -10.7 °C -15.8 °C 1015.1 hPa SW 3.2 km/h 14.5 km/h 66% 0 mm
01:30 -10.7 °C -16 °C 1015.1 hPa SW 6.4 km/h 14.5 km/h 65% 0 mm
01:35 -10.8 °C -15.9 °C 1015.1 hPa SSW 3.2 km/h 14.5 km/h 66% 0 mm
01:40 -10.8 °C -15.9 °C 1015.1 hPa SSW 1.6 km/h 11.3 km/h 66% 0 mm
01:45 -10.9 °C -15.9 °C 1015.1 hPa South 3.2 km/h 9.7 km/h 67% 0 mm
01:50 -10.9 °C -15.9 °C 1015.1 hPa SW 1.6 km/h 11.3 km/h 67% 0 mm
01:55 -11 °C -15.9 °C 1015.1 hPa SSW 4.8 km/h 11.3 km/h 67% 0 mm
02:00 -11.1 °C -15.8 °C 1015.1 hPa SW 4.8 km/h 11.3 km/h 68% 0 mm
02:05 -11.1 °C -16.1 °C 1015.1 hPa SSW 4.8 km/h 11.3 km/h 67% 0 mm
02:10 -11.2 °C -16.1 °C 1015.1 hPa SSW 3.2 km/h 9.7 km/h 67% 0 mm
02:15 -11.2 °C -16.1 °C 1015.1 hPa SSW 3.2 km/h 8 km/h 67% 0 mm
02:19 -11.2 °C -16.3 °C 1015.1 hPa Calm   9.7 km/h 66% 0 mm
02:25 -11.3 °C -16.4 °C 1015.1 hPa SSW 6.4 km/h 11.3 km/h 66% 0 mm
02:30 -11.3 °C -16.6 °C 1015.1 hPa SSW 6.4 km/h 12.9 km/h 65% 0 mm
02:35 -11.3 °C -16.4 °C 1015.1 hPa SSW 4.8 km/h 12.9 km/h 66% 0 mm
02:40 -11.3 °C -16.4 °C 1015.1 hPa SSW 4.8 km/h 17.7 km/h 66% 0 mm
02:45 -11.4 °C -16.5 °C 1015.1 hPa SSW 4.8 km/h 17.7 km/h 66% 0 mm
02:50 -11.4 °C -16.6 °C 1015.1 hPa SSW 3.2 km/h 12.9 km/h 66% 0 mm
02:55 -11.4 °C -16.6 °C 1015.1 hPa SSW 8 km/h 16.1 km/h 66% 0 mm
03:00 -11.5 °C -16.6 °C 1015.1 hPa SSW 3.2 km/h 16.1 km/h 66% 0 mm
03:05 -11.6 °C -16.8 °C 1014.8 hPa SSW 8 km/h 14.5 km/h 65% 0 mm
03:09 -11.6 °C -16.9 °C 1015.1 hPa SW 8 km/h 16.1 km/h 65% 0 mm
03:15 -11.7 °C -16.9 °C 1015.1 hPa SW 8 km/h 17.7 km/h 65% 0 mm
03:20 -11.6 °C -16.9 °C 1015.1 hPa SW 11.3 km/h 17.7 km/h 65% 0 mm
03:24 -11.6 °C -17 °C 1015.1 hPa SW 9.7 km/h 20.9 km/h 64% 0 mm
03:30 -11.6 °C -17.1 °C 1015.1 hPa SW 9.7 km/h 20.9 km/h 64% 0 mm
03:35 -11.7 °C -17.1 °C 1015.1 hPa SW 8 km/h 16.1 km/h 64% 0 mm
03:39 -11.7 °C -17.2 °C 1015.1 hPa SW 6.4 km/h 19.3 km/h 64% 0 mm
03:45 -11.8 °C -17.2 °C 1015.1 hPa SSW 6.4 km/h 19.3 km/h 64% 0 mm
03:50 -11.8 °C -17.3 °C 1015.1 hPa SW 8 km/h 16.1 km/h 64% 0 mm
03:55 -11.9 °C -17.4 °C 1015.1 hPa SW 8 km/h 16.1 km/h 64% 0 mm
03:59 -12 °C -17.4 °C 1015.1 hPa SW 8 km/h 16.1 km/h 64% 0 mm
04:05 -12.1 °C -17.5 °C 1015.1 hPa SW 8 km/h 16.1 km/h 64% 0 mm
04:10 -12.2 °C -17.6 °C 1015.1 hPa SW 9.7 km/h 16.1 km/h 64% 0 mm
04:14 -12.3 °C -17.7 °C 1015.1 hPa SW 11.3 km/h 17.7 km/h 64% 0 mm
04:20 -12.3 °C -17.7 °C 1015.1 hPa SSW 11.3 km/h 19.3 km/h 64% 0 mm
04:24 -12.3 °C -17.7 °C 1015.1 hPa SW 9.7 km/h 19.3 km/h 64% 0 mm
04:30 -12.4 °C -17.8 °C 1015.1 hPa SW 11.3 km/h 19.3 km/h 64% 0 mm
04:35 -12.4 °C -17.7 °C 1015.1 hPa SW 14.5 km/h 19.3 km/h 65% 0 mm
04:39 -12.6 °C -17.8 °C 1015.1 hPa SW 11.3 km/h 20.9 km/h 65% 0 mm
04:45 -12.7 °C -17.9 °C 1015.1 hPa SW 11.3 km/h 20.9 km/h 65% 0 mm
04:50 -12.7 °C -17.9 °C 1015.1 hPa SSW 11.3 km/h 20.9 km/h 65% 0 mm
04:55 -12.6 °C -17.8 °C 1015.1 hPa SSW 14.5 km/h 22.5 km/h 65% 0 mm
05:00 -12.6 °C -17.8 °C 1015.5 hPa SSW 11.3 km/h 25.7 km/h 65% 0 mm
05:05 -12.7 °C -17.9 °C 1015.5 hPa SSW 11.3 km/h 25.7 km/h 65% 0 mm
05:09 -12.7 °C -17.9 °C 1015.5 hPa SSW 8 km/h 24.1 km/h 65% 0 mm
05:15 -12.8 °C -18.1 °C 1015.1 hPa SSW 9.7 km/h 22.5 km/h 65% 0 mm
05:20 -13 °C -18 °C 1015.1 hPa SSW 6.4 km/h 19.3 km/h 66% 0 mm
05:24 -12.9 °C -17.9 °C 1015.5 hPa SSW 6.4 km/h 14.5 km/h 66% 0 mm
05:30 -12.9 °C -17.8 °C 1015.1 hPa SSW 9.7 km/h 17.7 km/h 67% 0 mm
05:35 -12.9 °C -17.7 °C 1015.5 hPa SSW 9.7 km/h 17.7 km/h 67% 0 mm
05:40 -12.9 °C -17.7 °C 1015.5 hPa SSW 6.4 km/h 17.7 km/h 67% 0 mm
05:44 -13 °C -17.8 °C 1015.5 hPa SSW 8 km/h 12.9 km/h 67% 0 mm
05:50 -13 °C -17.8 °C 1015.5 hPa SSW 11.3 km/h 17.7 km/h 67% 0 mm
05:55 -13.1 °C -17.9 °C 1015.5 hPa SW 8 km/h 17.7 km/h 67% 0 mm
05:59 -13.1 °C -17.9 °C 1015.8 hPa SSW 9.7 km/h 14.5 km/h 67% 0 mm
06:04 -13.1 °C -17.9 °C 1015.8 hPa SW 6.4 km/h 19.3 km/h 67% 0 mm
06:10 -13.1 °C -17.7 °C 1015.8 hPa SSW 8 km/h 19.3 km/h 68% 0 mm
06:15 -13 °C -17.8 °C 1015.8 hPa SSW 9.7 km/h 17.7 km/h 67% 0 mm
06:20 -13.1 °C -17.9 °C 1015.8 hPa SW 6.4 km/h 16.1 km/h 67% 0 mm
06:25 -13.2 °C -18.1 °C 1015.8 hPa SW 6.4 km/h 16.1 km/h 67% 0 mm
06:30 -13.4 °C -18.2 °C 1015.8 hPa SW 6.4 km/h 12.9 km/h 67% 0 mm
06:40 -13.8 °C -18.4 °C 1015.8 hPa SSW 6.4 km/h 11.3 km/h 68% 0 mm
06:45 -13.8 °C -18.4 °C 1016.1 hPa SW 6.4 km/h 12.9 km/h 68% 0 mm
06:50 -14 °C -18.4 °C 1016.1 hPa SW 4.8 km/h 12.9 km/h 69% 0 mm
06:55 -14.1 °C -18.6 °C 1016.1 hPa SSW 6.4 km/h 12.9 km/h 69% 0 mm
07:00 -14.3 °C -18.7 °C 1016.1 hPa SSW 6.4 km/h 12.9 km/h 69% 0 mm
07:05 -14.3 °C -18.6 °C 1016.1 hPa SSW 6.4 km/h 12.9 km/h 70% 0 mm
07:09 -14.4 °C -18.7 °C 1016.1 hPa SSW 6.4 km/h 12.9 km/h 70% 0 mm
07:15 -14.6 °C -19 °C 1016.1 hPa SSW 4.8 km/h 12.9 km/h 69% 0 mm
07:19 -14.6 °C -18.9 °C 1016.1 hPa SSW 6.4 km/h 11.3 km/h 70% 0 mm
07:25 -14.8 °C -19.1 °C 1016.1 hPa SSW 6.4 km/h 12.9 km/h 70% 0 mm
07:30 -14.7 °C -19 °C 1016.1 hPa SW 8 km/h 12.9 km/h 70% 0 mm
07:35 -14.7 °C -19 °C 1016.1 hPa SSW 4.8 km/h 12.9 km/h 70% 0 mm
07:40 -14.7 °C -19 °C 1016.5 hPa SSW 6.4 km/h 12.9 km/h 70% 0 mm
07:45 -14.7 °C -18.8 °C 1016.5 hPa SSW 6.4 km/h 11.3 km/h 71% 0 mm
07:50 -14.6 °C -18.9 °C 1016.5 hPa SSW 6.4 km/h 11.3 km/h 70% 0 mm
07:55 -14.2 °C -18.3 °C 1016.5 hPa SSW 9.7 km/h 12.9 km/h 71% 0 mm
08:00 -14.1 °C -18.3 °C 1016.5 hPa SSW 6.4 km/h 16.1 km/h 70% 0 mm
08:04 -13.8 °C -18.3 °C 1016.5 hPa SSW 9.7 km/h 16.1 km/h 69% 0 mm
08:10 -13.6 °C -18.2 °C 1016.8 hPa SSW 8 km/h 17.7 km/h 68% 0 mm
08:14 -13.4 °C -18.1 °C 1016.8 hPa SW 8 km/h 17.7 km/h 68% 0 mm
08:20 -13.1 °C -17.8 °C 1016.8 hPa SSW 9.7 km/h 17.7 km/h 68% 0 mm
08:24 -12.9 °C -17.7 °C 1016.8 hPa SSW 8 km/h 17.7 km/h 67% 0 mm
08:30 -12.7 °C -17.5 °C 1016.8 hPa SSW 9.7 km/h 19.3 km/h 67% 0 mm
08:35 -12.5 °C -17.6 °C 1016.8 hPa SSW 11.3 km/h 19.3 km/h 66% 0 mm
08:40 -12.3 °C -17.4 °C 1016.8 hPa SW 9.7 km/h 19.3 km/h 66% 0 mm
08:45 -12.3 °C -17.3 °C 1016.8 hPa SSW 8 km/h 19.3 km/h 66% 0 mm
08:50 -12.2 °C -17.2 °C 1016.8 hPa SW 12.9 km/h 22.5 km/h 66% 0 mm
08:55 -12 °C -17.1 °C 1017.2 hPa SSW 8 km/h 22.5 km/h 66% 0 mm
08:59 -11.8 °C -16.8 °C 1017.2 hPa SSW 9.7 km/h 17.7 km/h 66% 0 mm
09:05 -11.7 °C -16.9 °C 1017.2 hPa SW 11.3 km/h 20.9 km/h 65% 0 mm
09:09 -11.6 °C -16.8 °C 1017.2 hPa SSW 6.4 km/h 20.9 km/h 65% 0 mm
09:15 -11.4 °C -16.7 °C 1017.2 hPa SW 11.3 km/h 20.9 km/h 65% 0 mm
09:19 -11.3 °C -16.6 °C 1017.2 hPa SW 9.7 km/h 20.9 km/h 65% 0 mm
09:25 -11.2 °C -16.6 °C 1017.2 hPa SW 11.3 km/h 19.3 km/h 64% 0 mm
09:30 -11 °C -16.5 °C 1017.2 hPa SW 12.9 km/h 20.9 km/h 64% 0 mm
09:35 -10.8 °C -16.3 °C 1017.2 hPa SSW 9.7 km/h 20.9 km/h 64% 0 mm
09:40 -10.6 °C -16.1 °C 1017.2 hPa SW 8 km/h 19.3 km/h 64% 0 mm
09:44 -10.6 °C -16.2 °C 1017.2 hPa SSW 9.7 km/h 20.9 km/h 63% 0 mm
09:50 -10.3 °C -16.2 °C 1017.2 hPa SSW 9.7 km/h 20.9 km/h 62% 0 mm
09:55 -10.1 °C -16.2 °C 1017.2 hPa SSW 11.3 km/h 19.3 km/h 61% 0 mm
09:59 -10.1 °C -16.2 °C 1017.5 hPa SSW 8 km/h 19.3 km/h 61% 0 mm
10:05 -10 °C -16.3 °C 1017.2 hPa SSW 11.3 km/h 22.5 km/h 60% 0 mm
10:10 -9.9 °C -16 °C 1017.2 hPa SSW 12.9 km/h 22.5 km/h 61% 0 mm
10:14 -9.8 °C -16.2 °C 1017.5 hPa SSW 8 km/h 24.1 km/h 60% 0 mm
10:20 -9.7 °C -16.1 °C 1017.2 hPa SSW 11.3 km/h 24.1 km/h 60% 0 mm
10:25 -9.5 °C -16 °C 1017.5 hPa SSW 9.7 km/h 19.3 km/h 59% 0 mm
10:30 -9.4 °C -16.1 °C 1017.5 hPa SSW 11.3 km/h 19.3 km/h 58% 0 mm
10:35 -9.3 °C -16.1 °C 1017.5 hPa SSW 9.7 km/h 19.3 km/h 58% 0 mm
10:40 -9.5 °C -16 °C 1017.2 hPa SSW 12.9 km/h 19.3 km/h 59% 0 mm
10:44 -9.6 °C -16.1 °C 1017.5 hPa SSW 9.7 km/h 19.3 km/h 59% 0 mm
10:50 -9.4 °C -15.9 °C 1017.2 hPa SSW 11.3 km/h 17.7 km/h 59% 0 mm
10:55 -9.2 °C -15.7 °C 1017.2 hPa SSW 9.7 km/h 17.7 km/h 59% 0 mm
10:59 -9.1 °C -15.6 °C 1017.2 hPa SSW 8 km/h 16.1 km/h 59% 0 mm
11:05 -8.9 °C -15.4 °C 1017.5 hPa SSW 9.7 km/h 19.3 km/h 59% 0 mm
11:09 -8.4 °C -15.1 °C 1017.5 hPa SSW 8 km/h 19.3 km/h 59% 0 mm
11:15 -8.3 °C -15.3 °C 1017.2 hPa SSW 11.3 km/h 19.3 km/h 57% 0 mm
11:19 -8.2 °C -15 °C 1017.2 hPa SSW 9.7 km/h 19.3 km/h 58% 0 mm
11:25 -8.1 °C -15.1 °C 1017.2 hPa SW 11.3 km/h 17.7 km/h 57% 0 mm
11:30 -7.8 °C -14.9 °C 1017.2 hPa SSW 9.7 km/h 17.7 km/h 57% 0 mm
11:35 -7.7 °C -14.8 °C 1017.2 hPa SW 8 km/h 16.1 km/h 57% 0 mm
11:44 -7.8 °C -14.9 °C 1017.2 hPa SSW 8 km/h 17.7 km/h 57% 0 mm
11:50 -7.6 °C -14.7 °C 1017.2 hPa SW 4.8 km/h 14.5 km/h 57% 0 mm
11:55 -7.5 °C -14.6 °C 1017.2 hPa SSW 8 km/h 14.5 km/h 57% 0 mm
12:00 -7.7 °C -14.8 °C 1016.8 hPa SW 8 km/h 16.1 km/h 57% 0 mm
12:05 -7.9 °C -14.8 °C 1016.8 hPa SSW 8 km/h 19.3 km/h 58% 0 mm
12:09 -7.9 °C -14.9 °C 1016.8 hPa SSW 11.3 km/h 19.3 km/h 57% 0 mm
12:15 -8.1 °C -15.1 °C 1016.8 hPa SSW 9.7 km/h 19.3 km/h 57% 0 mm
12:19 -8 °C -15.1 °C 1016.8 hPa SSW 11.3 km/h 19.3 km/h 57% 0 mm
12:25 -8.1 °C -15.1 °C 1016.8 hPa SSW 12.9 km/h 22.5 km/h 57% 0 mm
12:30 -8.1 °C -15.1 °C 1016.8 hPa SSW 9.7 km/h 22.5 km/h 57% 0 mm
12:35 -7.9 °C -15 °C 1016.8 hPa SSW 11.3 km/h 20.9 km/h 57% 0 mm
12:44 -7.7 °C -14.8 °C 1016.5 hPa SSW 9.7 km/h 20.9 km/h 57% 0 mm
12:50 -7.4 °C -14.7 °C 1016.5 hPa SW 9.7 km/h 19.3 km/h 56% 0 mm
12:55 -7.3 °C -14.6 °C 1016.5 hPa SSW 11.3 km/h 19.3 km/h 56% 0 mm
12:59 -7.4 °C -14.7 °C 1016.5 hPa SW 9.7 km/h 19.3 km/h 56% 0 mm
13:05 -7.3 °C -14.6 °C 1016.5 hPa South 11.3 km/h 24.1 km/h 56% 0 mm
13:09 -7.1 °C -14.2 °C 1016.5 hPa SW 4.8 km/h 24.1 km/h 57% 0 mm
13:14 -7 °C -14.3 °C 1016.5 hPa WSW 6.4 km/h 14.5 km/h 56% 0 mm
13:20 -6.8 °C -14.2 °C 1016.5 hPa SSW 4.8 km/h 14.5 km/h 56% 0 mm
13:24 -6.7 °C -14.2 °C 1016.5 hPa WSW 4.8 km/h 14.5 km/h 55% 0 mm
13:30 -6.7 °C -14.3 °C 1016.5 hPa SW 9.7 km/h 16.1 km/h 55% 0 mm
13:34 -6.7 °C -14.3 °C 1016.5 hPa SW 8 km/h 16.1 km/h 55% 0 mm
13:39 -6.8 °C -14.4 °C 1016.5 hPa SSW 8 km/h 19.3 km/h 55% 0 mm
13:45 -6.8 °C -14.4 °C 1016.5 hPa SSW 11.3 km/h 19.3 km/h 55% 0 mm
13:49 -6.8 °C -14.4 °C 1016.5 hPa SSW 8 km/h 16.1 km/h 55% 0 mm
13:55 -6.8 °C -14.4 °C 1016.5 hPa SSW 11.3 km/h 16.1 km/h 55% 0 mm
14:00 -6.8 °C -14.4 °C 1016.5 hPa SSW 6.4 km/h 16.1 km/h 55% 0 mm
14:05 -6.7 °C -14.2 °C 1016.5 hPa SSW 6.4 km/h 16.1 km/h 55% 0 mm
14:14 -6.7 °C -14.5 °C 1016.5 hPa SSW 9.7 km/h 16.1 km/h 54% 0 mm
14:19 -6.8 °C -14.4 °C 1016.5 hPa South 4.8 km/h 16.1 km/h 55% 0 mm
14:24 -6.7 °C -14.2 °C 1016.5 hPa SSW 6.4 km/h 16.1 km/h 55% 0 mm
14:30 -6.3 °C -14.3 °C 1016.1 hPa SSW 9.7 km/h 16.1 km/h 53% 0 mm
14:35 -6.3 °C -14.1 °C 1016.5 hPa SW 4.8 km/h 17.7 km/h 54% 0 mm
14:39 -6.5 °C -14.5 °C 1016.1 hPa SSW 9.7 km/h 19.3 km/h 53% 0 mm
14:44 -6.4 °C -14.2 °C 1016.1 hPa SSW 8 km/h 19.3 km/h 54% 0 mm
14:50 -6.3 °C -14.1 °C 1016.1 hPa SSW 6.4 km/h 12.9 km/h 54% 0 mm
14:55 -6.3 °C -14.3 °C 1016.1 hPa SSW 6.4 km/h 12.9 km/h 53% 0 mm
14:59 -6.2 °C -14.2 °C 1016.1 hPa SSW 6.4 km/h 12.9 km/h 53% 0 mm
15:05 -6.1 °C -14.3 °C 1016.1 hPa SSW 6.4 km/h 14.5 km/h 52% 0 mm
15:09 -5.9 °C -14.4 °C 1016.1 hPa SSW 3.2 km/h 14.5 km/h 51% 0 mm
15:15 -6.1 °C -14.6 °C 1016.1 hPa SSW 6.4 km/h 12.9 km/h 51% 0 mm
15:19 -6 °C -14.5 °C 1016.1 hPa SSW 6.4 km/h 12.9 km/h 51% 0 mm
15:24 -6.1 °C -14.6 °C 1016.1 hPa South 4.8 km/h 11.3 km/h 51% 0 mm
15:30 -6.1 °C -14.3 °C 1016.1 hPa SSW 3.2 km/h 12.9 km/h 52% 0 mm
15:40 -6.1 °C -14.6 °C 1016.1 hPa SSW 1.6 km/h 11.3 km/h 51% 0 mm
15:44 -6 °C -14.8 °C 1016.1 hPa SSW 4.8 km/h 9.7 km/h 50% 0 mm
15:50 -6.1 °C -14.8 °C 1016.1 hPa SSW 6.4 km/h 9.7 km/h 50% 0 mm
15:55 -6.2 °C -14.9 °C 1016.1 hPa SW 4.8 km/h 9.7 km/h 50% 0 mm
15:59 -6.2 °C -14.9 °C 1015.8 hPa SSW 1.6 km/h 9.7 km/h 50% 0 mm
16:04 -6.2 °C -14.9 °C 1015.8 hPa SSW 3.2 km/h 9.7 km/h 50% 0 mm
16:09 -6.3 °C -15.1 °C 1015.8 hPa SW 6.4 km/h 8 km/h 50% 0 mm
16:14 -6.5 °C -15.2 °C 1015.8 hPa South 4.8 km/h 8 km/h 50% 0 mm
16:20 -6.6 °C -15.3 °C 1015.8 hPa SSW 1.6 km/h 8 km/h 50% 0 mm
16:24 -6.6 °C -15.3 °C 1015.8 hPa SSW 3.2 km/h 8 km/h 50% 0 mm
16:30 -6.8 °C -15.5 °C 1015.8 hPa SSW 4.8 km/h 8 km/h 50% 0 mm
16:35 -6.9 °C -15.6 °C 1015.8 hPa SSW 3.2 km/h 8 km/h 50% 0 mm
16:40 -7.1 °C -15.7 °C 1015.8 hPa SW 3.2 km/h 8 km/h 50% 0 mm
16:44 -7.2 °C -15.7 °C 1015.8 hPa SSW 1.6 km/h 8 km/h 51% 0 mm
16:49 -7.3 °C -15.8 °C 1015.8 hPa SSW 4.8 km/h 8 km/h 51% 0 mm
16:55 -7.7 °C -16.1 °C 1015.8 hPa SSW 1.6 km/h 8 km/h 51% 0 mm
17:00 -8 °C -15.9 °C 1015.8 hPa SSW 3.2 km/h 8 km/h 53% 0 mm
17:04 -8.4 °C -16.3 °C 1015.8 hPa SSW 1.6 km/h 6.4 km/h 53% 0 mm
17:10 -8.9 °C -15.9 °C 1015.8 hPa Calm   6.4 km/h 57% 0 mm
17:14 -9.4 °C -16.3 °C 1015.8 hPa Calm   6.4 km/h 57% 0 mm
17:20 -9.6 °C -16.3 °C 1015.8 hPa Calm   4.8 km/h 58% 0 mm
17:24 -9.7 °C -16.4 °C 1015.5 hPa Calm   4.8 km/h 58% 0 mm
17:30 -9.8 °C -15.6 °C 1015.8 hPa Calm     63% 0 mm
17:35 -10.2 °C -16.3 °C 1015.8 hPa Calm     61% 0 mm
17:40 -10.6 °C -16.6 °C 1015.8 hPa Calm     61% 0 mm
17:44 -10.6 °C -15.7 °C 1015.8 hPa Calm     66% 0 mm
17:50 -10.7 °C -16.6 °C 1015.8 hPa Calm   6.4 km/h 62% 0 mm
17:55 -10.7 °C -16.7 °C 1015.5 hPa Calm   6.4 km/h 61% 0 mm
17:59 -10.7 °C -16.6 °C 1015.8 hPa Calm   4.8 km/h 62% 0 mm
18:04 -10.7 °C -16.6 °C 1015.8 hPa Calm   4.8 km/h 62% 0 mm
18:09 -10.9 °C -16.7 °C 1015.5 hPa Calm   4.8 km/h 62% 0 mm
18:14 -10.9 °C -16.4 °C 1015.5 hPa Calm     64% 0 mm
18:19 -10.9 °C -16.2 °C 1015.8 hPa Calm     65% 0 mm
18:24 -10.9 °C -16.1 °C 1015.5 hPa Calm     66% 0 mm
18:30 -11.2 °C -17 °C 1015.5 hPa Calm     62% 0 mm
18:35 -11.3 °C -16.4 °C 1015.8 hPa Calm     66% 0 mm
18:39 -11.3 °C -16.4 °C 1015.8 hPa Calm     66% 0 mm
18:45 -11.4 °C -16.5 °C 1015.5 hPa Calm     66% 0 mm
18:49 -11.3 °C -16.2 °C 1015.5 hPa Calm   3.2 km/h 67% 0 mm
18:55 -11.2 °C -16.3 °C 1015.5 hPa Calm   3.2 km/h 66% 0 mm
19:00 -11.3 °C -16.4 °C 1015.5 hPa Calm   3.2 km/h 66% 0 mm
19:04 -11.3 °C -16.2 °C 1015.5 hPa Calm   3.2 km/h 67% 0 mm
19:10 -11.3 °C -16.4 °C 1015.5 hPa Calm     66% 0 mm
19:15 -11.2 °C -15.9 °C 1015.5 hPa Calm     68% 0 mm
19:20 -11.3 °C -16 °C 1015.5 hPa Calm     68% 0 mm
19:24 -11.3 °C -16 °C 1015.5 hPa Calm     68% 0 mm
19:30 -11.5 °C -16.6 °C 1015.1 hPa Calm     66% 0 mm
19:35 -11.6 °C -16.8 °C 1015.1 hPa Calm   3.2 km/h 65% 0 mm
19:39 -11.7 °C -16.9 °C 1015.1 hPa SSW 1.6 km/h 3.2 km/h 65% 0 mm
19:45 -11.4 °C -16.8 °C 1015.1 hPa SSW 1.6 km/h 6.4 km/h 64% 0 mm
19:49 -11.2 °C -16.7 °C 1015.1 hPa SSW 1.6 km/h 6.4 km/h 64% 0 mm
19:55 -10.8 °C -16.5 °C 1015.1 hPa SSW 3.2 km/h 6.4 km/h 63% 0 mm
19:59 -10.4 °C -16.3 °C 1015.5 hPa SSW 1.6 km/h 8 km/h 62% 0 mm
20:04 -10.2 °C -16.3 °C 1015.5 hPa SSW 1.6 km/h 8 km/h 61% 0 mm
20:09 -10 °C -16.3 °C 1015.5 hPa SSW 3.2 km/h 8 km/h 60% 0 mm
20:14 -9.7 °C -16.1 °C 1015.5 hPa SSW 3.2 km/h 9.7 km/h 60% 0 mm
20:19 -9.6 °C -16.1 °C 1015.5 hPa SSW 3.2 km/h 9.7 km/h 59% 0 mm
20:24 -9.6 °C -16.1 °C 1015.1 hPa SSW 3.2 km/h 9.7 km/h 59% 0 mm
20:30 -9.5 °C -16 °C 1015.1 hPa SSW 1.6 km/h 9.7 km/h 59% 0 mm
20:35 -9.6 °C -15.9 °C 1015.5 hPa SSW 3.2 km/h 9.7 km/h 60% 0 mm
20:39 -9.7 °C -16 °C 1015.5 hPa SSW 3.2 km/h 9.7 km/h 60% 0 mm
20:44 -9.6 °C -15.9 °C 1015.5 hPa SSW 1.6 km/h 9.7 km/h 60% 0 mm
20:49 -9.7 °C -15.8 °C 1015.1 hPa SSW 1.6 km/h 11.3 km/h 61% 0 mm
20:55 -9.7 °C -15.8 °C 1015.1 hPa SW 3.2 km/h 12.9 km/h 61% 0 mm
21:04 -9.6 °C -15.5 °C 1015.5 hPa SSW 6.4 km/h 12.9 km/h 62% 0 mm
21:09 -9.4 °C -15.6 °C 1015.5 hPa SSW 6.4 km/h 12.9 km/h 61% 0 mm
21:15 -9.4 °C -15.5 °C 1015.1 hPa SSW 6.4 km/h 14.5 km/h 61% 0 mm
21:19 -9.2 °C -15.3 °C 1015.5 hPa SSW 4.8 km/h 14.5 km/h 61% 0 mm
21:25 -9.2 °C -15.4 °C 1015.1 hPa SSW 4.8 km/h 11.3 km/h 61% 0 mm
21:30 -9.1 °C -15.1 °C 1015.1 hPa SSW 3.2 km/h 12.9 km/h 62% 0 mm
21:34 -9 °C -14.9 °C 1015.1 hPa SSW 4.8 km/h 12.9 km/h 62% 0 mm
21:40 -8.9 °C -14.9 °C 1015.1 hPa SSW 4.8 km/h 12.9 km/h 62% 0 mm
21:44 -8.9 °C -14.9 °C 1015.1 hPa SSW 6.4 km/h 12.9 km/h 62% 0 mm
21:50 -8.9 °C -14.8 °C 1014.8 hPa SSW 3.2 km/h 12.9 km/h 62% 0 mm
21:55 -8.9 °C -14.9 °C 1014.8 hPa SSW 4.8 km/h 11.3 km/h 62% 0 mm
21:59 -9.1 °C -15.1 °C 1014.8 hPa SSW 4.8 km/h 11.3 km/h 62% 0 mm
22:04 -9.1 °C -14.9 °C 1014.8 hPa SSW 6.4 km/h 11.3 km/h 63% 0 mm
22:10 -9.2 °C -14.9 °C 1014.8 hPa SSW 8 km/h 12.9 km/h 63% 0 mm
22:14 -9.2 °C -14.9 °C 1014.8 hPa SSW 3.2 km/h 12.9 km/h 63% 0 mm
22:20 -9.2 °C -14.9 °C 1014.8 hPa SSW 3.2 km/h 8 km/h 63% 0 mm
22:24 -9.2 °C -14.9 °C 1014.8 hPa SSW 3.2 km/h 8 km/h 63% 0 mm
22:30 -9.3 °C -15 °C 1014.4 hPa SSW 4.8 km/h 8 km/h 63% 0 mm
22:35 -9.3 °C -15 °C 1014.4 hPa South 1.6 km/h 8 km/h 63% 0 mm
22:40 -9.3 °C -15 °C 1014.4 hPa SSW 3.2 km/h 8 km/h 63% 0 mm
22:44 -9.3 °C -15 °C 1014.1 hPa Calm   8 km/h 63% 0 mm
22:50 -9.3 °C -15 °C 1014.1 hPa SSW 3.2 km/h 8 km/h 63% 0 mm
22:55 -9.2 °C -14.9 °C 1014.1 hPa SSW 3.2 km/h 8 km/h 63% 0 mm
22:59 -9.1 °C -14.9 °C 1013.8 hPa SSW 1.6 km/h 8 km/h 63% 0 mm
23:05 -9.2 °C -14.9 °C 1013.8 hPa Calm   8 km/h 63% 0 mm
23:09 -9.2 °C -14.9 °C 1013.4 hPa Calm   8 km/h 63% 0 mm
23:15 -9.4 °C -14.6 °C 1013.4 hPa Calm   8 km/h 66% 0 mm
23:19 -9.4 °C -14.8 °C 1013.4 hPa South 1.6 km/h 6.4 km/h 65% 0 mm
23:24 -9.3 °C -14.7 °C 1013.4 hPa SSW 1.6 km/h 8 km/h 65% 0 mm
23:29 -9 °C -14.6 °C 1013.1 hPa SSW 3.2 km/h 9.7 km/h 64% 0 mm
23:34 -8.7 °C -14.3 °C 1013.1 hPa South 4.8 km/h 9.7 km/h 64% 0 mm
23:39 -8.4 °C -14.2 °C 1013.1 hPa SSW 3.2 km/h 11.3 km/h 63% 0 mm
23:44 -8.3 °C -14.3 °C 1013.1 hPa SSW 1.6 km/h 11.3 km/h 62% 0 mm
23:49 -8.3 °C -14.3 °C 1012.8 hPa SSW 3.2 km/h 9.7 km/h 62% 0 mm
23:55 -8.4 °C -14.4 °C 1012.8 hPa SSW 3.2 km/h 9.7 km/h 62% 0 mm
23:59 -8.4 °C -14.2 °C 1012.8 hPa SSW 3.2 km/h 9.7 km/h 63% 0 mm
Westford Weather
Compliments of Weather Underground

 
 
Current Radar Loop:

Copyright © WestfordWeather.net 2007-2014. All rights reserved.